When you browse on this site, cookies collect data to enhance your experience and personalize the content and advertising you see.
Visit our Privacy Policy to learn more. By continuing to use the site, you agree to this use of cookies and data.
  • Em Portugal
  • Lista de países
  • Para 7 dias
  • Temperatura da água
  • Mapas de satélite
  • Mapa do tempo
  • Widgets de tempo
  • user-avatar
    Iniciar Sessão

    Previsão horária em Maryna

    Hoje, 26 Março, Terça-feira

    Tempo Temperatura Precipitação Vento Pressão Humidade
    00:00 -1°C° 0 mm 5 m/s 743 mmHg 85%
    01:00 -1°C° 0 mm 5 m/s 743 mmHg 85%
    02:00 -2°C° 0 mm 4 m/s 743 mmHg 83%
    03:00 -2°C° 0 mm 4 m/s 743 mmHg 83%
    04:00 -3°C° 0 mm 4 m/s 744 mmHg 82%
    05:00 -2°C° 0 mm 3 m/s 744 mmHg 82%
    06:00 -3°C° 0 mm 4 m/s 744 mmHg 78%
    07:00 -2°C° 0 mm 4 m/s 744 mmHg 75%
    08:00 -1°C° 0 mm 4 m/s 743 mmHg 68%
    09:00 0°C° 0 mm 4 m/s 743 mmHg 63%
    10:00 +1°C° 0 mm 5 m/s 742 mmHg 57%
    11:00 +2°C° 0 mm 6 m/s 742 mmHg 51%
    12:00 +2°C° 0.7 mm 6 m/s 741 mmHg 59%
    13:00 0°C° 0.7 mm 7 m/s 740 mmHg 68%
    14:00 0°C° 0.7 mm 7 m/s 740 mmHg 76%
    15:00 0°C° 0.6 mm 7 m/s 739 mmHg 76%
    16:00 -1°C° 0.6 mm 7 m/s 739 mmHg 77%
    17:00 -1°C° 0.6 mm 7 m/s 739 mmHg 77%
    18:00 -1°C° 0.1 mm 7 m/s 740 mmHg 79%
    19:00 -2°C° 0.1 mm 7 m/s 741 mmHg 81%
    20:00 -2°C° 0.1 mm 7 m/s 741 mmHg 83%
    21:00 -2°C° 0 mm 7 m/s 742 mmHg 83%
    22:00 -2°C° 0 mm 6 m/s 743 mmHg 82%
    23:00 -3°C° 0 mm 6 m/s 744 mmHg 82%

    Amanhã, 27 Março, Quarta-feira

    Tempo Temperatura Precipitação Vento Pressão Humidade
    00:00 -4°C° 0 mm 6 m/s 745 mmHg 81%
    01:00 -5°C° 0 mm 5 m/s 746 mmHg 81%
    02:00 -6°C° 0 mm 5 m/s 747 mmHg 81%
    03:00 -5°C° 0 mm 4 m/s 748 mmHg 82%
    04:00 -5°C° 0 mm 4 m/s 748 mmHg 84%
    05:00 -6°C° 0 mm 3 m/s 749 mmHg 85%
    06:00 -5°C° 0 mm 3 m/s 750 mmHg 81%
    07:00 -4°C° 0 mm 3 m/s 750 mmHg 77%
    08:00 -2°C° 0 mm 3 m/s 751 mmHg 74%
    09:00 -1°C° 0 mm 3 m/s 751 mmHg 70%
    10:00 +1°C° 0 mm 3 m/s 751 mmHg 67%
    11:00 +2°C° 0 mm 3 m/s 751 mmHg 64%
    12:00 +3°C° 0 mm 3 m/s 751 mmHg 63%
    13:00 +3°C° 0 mm 3 m/s 751 mmHg 62%
    14:00 +4°C° 0 mm 3 m/s 751 mmHg 61%
    15:00 +4°C° 0 mm 3 m/s 751 mmHg 61%
    16:00 +4°C° 0 mm 3 m/s 751 mmHg 61%
    17:00 +5°C° 0 mm 2 m/s 751 mmHg 62%
    18:00 +4°C° 0.1 mm 2 m/s 751 mmHg 67%
    19:00 +4°C° 0.1 mm 1 m/s 752 mmHg 72%
    20:00 +3°C° 0.1 mm 1 m/s 752 mmHg 77%
    21:00 +3°C° 0.2 mm 1 m/s 752 mmHg 78%
    22:00 +3°C° 0.2 mm 1 m/s 752 mmHg 80%
    23:00 +3°C° 0.2 mm 1 m/s 752 mmHg 81%

    Depois de amanhã, 28 Março, Quinta-feira

    Tempo Temperatura Precipitação Vento Pressão Humidade
    00:00 +3°C° 0 mm 1 m/s 752 mmHg 82%
    01:00 +3°C° 0 mm 1 m/s 752 mmHg 84%
    02:00 +3°C° 0 mm 1 m/s 752 mmHg 85%
    03:00 +3°C° 0 mm 1 m/s 753 mmHg 85%
    04:00 +2°C° 0 mm 1 m/s 753 mmHg 86%
    05:00 +2°C° 0 mm 1 m/s 753 mmHg 87%
    06:00 +2°C° 0 mm 1 m/s 753 mmHg 85%
    07:00 +3°C° 0 mm 1 m/s 753 mmHg 84%
    08:00 +3°C° 0 mm 1 m/s 754 mmHg 83%
    09:00 +5°C° 0 mm 1 m/s 754 mmHg 78%
    10:00 +6°C° 0 mm 1 m/s 755 mmHg 74%
    11:00 +8°C° 0 mm 1 m/s 755 mmHg 69%
    12:00 +8°C° 0 mm 1 m/s 755 mmHg 69%
    13:00 +9°C° 0 mm 1 m/s 756 mmHg 68%
    14:00 +8°C° 0 mm 2 m/s 756 mmHg 67%
    15:00 +8°C° 0 mm 2 m/s 756 mmHg 68%
    16:00 +8°C° 0 mm 2 m/s 756 mmHg 69%
    17:00 +8°C° 0 mm 2 m/s 755 mmHg 70%
    18:00 +6°C° 0 mm 2 m/s 756 mmHg 76%
    19:00 +5°C° 0 mm 2 m/s 756 mmHg 83%
    20:00 +4°C° 0 mm 2 m/s 756 mmHg 89%
    21:00 +3°C° 0 mm 2 m/s 756 mmHg 90%
    22:00 +3°C° 0 mm 2 m/s 756 mmHg 91%
    23:00 +3°C° 0 mm 2 m/s 757 mmHg 92%

    29 Março, Sexta-feira

    Tempo Temperatura Precipitação Vento Pressão Humidade
    00:00 +3°C° 0 mm 2 m/s 757 mmHg 93%
    01:00 +2°C° 0 mm 2 m/s 756 mmHg 93%
    02:00 +2°C° 0 mm 2 m/s 756 mmHg 93%
    03:00 +1°C° 0 mm 3 m/s 756 mmHg 93%
    04:00 +1°C° 0 mm 3 m/s 756 mmHg 92%
    05:00 +1°C° 0 mm 3 m/s 756 mmHg 92%
    06:00 +2°C° 0 mm 3 m/s 755 mmHg 90%
    07:00 +3°C° 0 mm 4 m/s 755 mmHg 89%
    08:00 +4°C° 0 mm 4 m/s 755 mmHg 87%
    09:00 +5°C° 0 mm 4 m/s 755 mmHg 84%
    10:00 +7°C° 0 mm 4 m/s 755 mmHg 81%
    11:00 +8°C° 0 mm 5 m/s 755 mmHg 78%
    12:00 +8°C° 0 mm 5 m/s 755 mmHg 78%
    13:00 +8°C° 0 mm 5 m/s 755 mmHg 78%
    14:00 +9°C° 0 mm 5 m/s 754 mmHg 78%
    15:00 +9°C° 0 mm 5 m/s 754 mmHg 76%
    16:00 +10°C° 0 mm 5 m/s 754 mmHg 75%
    17:00 +10°C° 0 mm 5 m/s 754 mmHg 73%
    18:00 +9°C° 0 mm 5 m/s 754 mmHg 78%
    19:00 +7°C° 0 mm 4 m/s 753 mmHg 83%
    20:00 +6°C° 0 mm 4 m/s 753 mmHg 89%
    21:00 +6°C° 0 mm 4 m/s 753 mmHg 88%
    22:00 +6°C° 0 mm 4 m/s 753 mmHg 88%
    23:00 +5°C° 0 mm 4 m/s 753 mmHg 88%

    30 Março, Sábado

    Tempo Temperatura Precipitação Vento Pressão Humidade
    00:00 +5°C° 0 mm 4 m/s 753 mmHg 88%
    01:00 +5°C° 0 mm 4 m/s 753 mmHg 88%
    02:00 +4°C° 0 mm 4 m/s 753 mmHg 88%
    03:00 +4°C° 0 mm 4 m/s 753 mmHg 89%
    04:00 +3°C° 0 mm 4 m/s 752 mmHg 90%
    05:00 +3°C° 0 mm 4 m/s 752 mmHg 91%
    06:00 +4°C° 0 mm 4 m/s 752 mmHg 88%
    07:00 +5°C° 0 mm 4 m/s 752 mmHg 86%
    08:00 +5°C° 0 mm 5 m/s 752 mmHg 83%
    09:00 +7°C° 0 mm 5 m/s 752 mmHg 76%
    10:00 +9°C° 0 mm 5 m/s 752 mmHg 70%
    11:00 +10°C° 0 mm 5 m/s 752 mmHg 63%
    12:00 +12°C° 0 mm 5 m/s 751 mmHg 60%
    13:00 +13°C° 0 mm 5 m/s 751 mmHg 57%
    14:00 +14°C° 0 mm 6 m/s 751 mmHg 55%
    15:00 +14°C° 0 mm 5 m/s 750 mmHg 56%
    16:00 +14°C° 0 mm 5 m/s 750 mmHg 58%
    17:00 +14°C° 0 mm 4 m/s 749 mmHg 60%
    18:00 +13°C° 0 mm 4 m/s 749 mmHg 66%
    19:00 +12°C° 0 mm 3 m/s 749 mmHg 72%
    20:00 +12°C° 0 mm 2 m/s 749 mmHg 78%
    21:00 +10°C° 0 mm 2 m/s 749 mmHg 80%
    22:00 +10°C° 0 mm 2 m/s 748 mmHg 82%
    23:00 +10°C° 0 mm 2 m/s 748 mmHg 84%

    31 Março, Domingo

    Tempo Temperatura Precipitação Vento Pressão Humidade
    00:00 +9°C° 0 mm 2 m/s 748 mmHg 86%
    01:00 +9°C° 0 mm 2 m/s 747 mmHg 88%
    02:00 +8°C° 0 mm 2 m/s 747 mmHg 90%
    03:00 +8°C° 0.1 mm 2 m/s 747 mmHg 91%
    04:00 +8°C° 0.1 mm 2 m/s 747 mmHg 91%
    05:00 +7°C° 0.1 mm 2 m/s 746 mmHg 92%
    06:00 +8°C° 0.1 mm 2 m/s 746 mmHg 91%
    07:00 +8°C° 0.1 mm 2 m/s 746 mmHg 90%
    08:00 +8°C° 0.1 mm 2 m/s 746 mmHg 89%
    09:00 +8°C° 0.4 mm 2 m/s 746 mmHg 88%
    10:00 +8°C° 0.4 mm 2 m/s 746 mmHg 87%
    11:00 +8°C° 0.4 mm 2 m/s 746 mmHg 86%
    12:00 +9°C° 0.1 mm 2 m/s 746 mmHg 81%
    13:00 +9°C° 0.1 mm 2 m/s 746 mmHg 75%
    14:00 +10°C° 0.1 mm 3 m/s 746 mmHg 70%
    15:00 +9°C° 0.5 mm 3 m/s 746 mmHg 72%
    16:00 +7°C° 0.5 mm 4 m/s 746 mmHg 73%
    17:00 +6°C° 0.5 mm 5 m/s 747 mmHg 75%
    18:00 +5°C° 0.2 mm 5 m/s 747 mmHg 77%
    19:00 +5°C° 0.2 mm 5 m/s 748 mmHg 79%
    20:00 +3°C° 0.2 mm 5 m/s 748 mmHg 81%
    21:00 +2°C° 0.1 mm 5 m/s 749 mmHg 76%
    22:00 +2°C° 0.1 mm 5 m/s 749 mmHg 70%
    23:00 +1°C° 0.1 mm 5 m/s 750 mmHg 64%
    Mostrar mais